| time (UTC) | temp F | wind direction | speed MPH | gust MPH | rain 1hr in | rain 24hr in | rain mn in | humidity % | barometer mb |
| 20260508033424 | 61 | 324 | 0.0 | 0.0 | 0.00 | 0.00 | 0.00 | 90 | 1014.9 |
| 20260508032921 | 62 | 307 | 3.0 | 3.0 | 0.00 | 0.00 | 0.00 | 89 | 1014.6 |
| 20260508032419 | 62 | 304 | 0.0 | 1.0 | 0.00 | 0.00 | 0.00 | 89 | 1014.6 |
| 20260508031915 | 61 | 282 | 1.0 | 2.0 | 0.00 | 0.00 | 0.00 | 89 | 1014.6 |
| 20260508031413 | 61 | 296 | 2.0 | 2.0 | 0.00 | 0.00 | 0.00 | 89 | 1014.5 |
| 20260508030908 | 61 | 229 | 1.0 | 1.0 | 0.00 | 0.00 | 0.00 | 88 | 1014.5 |
| 20260508030406 | 61 | 244 | 1.0 | 2.0 | 0.00 | 0.00 | 0.00 | 88 | 1014.5 |
| 20260508025902 | 61 | 271 | 4.0 | 5.0 | 0.00 | 0.00 | 0.00 | 88 | 1014.4 |
| 20260508025359 | 61 | 237 | 2.0 | 5.0 | 0.00 | 0.00 | 0.00 | 88 | 1014.5 |
| 20260508024856 | 61 | 287 | 2.0 | 2.0 | 0.00 | 0.00 | 0.00 | 88 | 1014.5 |
| 20260508024352 | 62 | 238 | 2.0 | 3.0 | 0.00 | 0.00 | 0.00 | 88 | 1014.1 |
| 20260508023849 | 62 | 241 | 4.0 | 8.0 | 0.00 | 0.00 | 0.00 | 88 | 1014.1 |
| 20260508023346 | 62 | 237 | 5.0 | 6.0 | 0.00 | 0.00 | 0.00 | 86 | 1014.1 |
| 20260508022843 | 62 | 219 | 5.0 | 7.0 | 0.00 | 0.00 | 0.00 | 87 | 1014.0 |
| 20260508022338 | 62 | 274 | 4.0 | 6.0 | 0.00 | 0.00 | 0.00 | 86 | 1013.8 |
| 20260508021836 | 62 | 255 | 2.0 | 3.0 | 0.00 | 0.00 | 0.00 | 87 | 1014.1 |
| 20260508021331 | 62 | 242 | 5.0 | 7.0 | 0.00 | 0.00 | 0.00 | 86 | 1014.1 |
| 20260508020827 | 62 | 250 | 8.0 | 10.0 | 0.00 | 0.00 | 0.00 | 86 | 1014.2 |
| 20260508020326 | 62 | 232 | 4.0 | 6.0 | 0.00 | 0.00 | 0.00 | 87 | 1014.1 |
| 20260508015822 | 62 | 303 | 3.0 | 5.0 | 0.00 | 0.00 | 0.00 | 87 | 1014.0 |
| 20260508015314 | 62 | 259 | 6.0 | 8.0 | 0.00 | 0.00 | 0.00 | 87 | 1014.2 |
| 20260508014810 | 63 | 214 | 3.0 | 6.0 | 0.00 | 0.00 | 0.00 | 85 | 1014.2 |
| 20260508014308 | 64 | 263 | 6.0 | 7.0 | 0.00 | 0.00 | 0.00 | 84 | 1013.8 |
| 20260508013803 | 63 | 234 | 3.0 | 5.0 | 0.00 | 0.00 | 0.00 | 86 | 1013.9 |
| 20260508013259 | 63 | 238 | 6.0 | 9.0 | 0.00 | 0.00 | 0.00 | 85 | 1013.9 |
| 20260508012757 | 63 | 278 | 4.0 | 5.0 | 0.00 | 0.00 | 0.00 | 85 | 1013.7 |
| 20260508012254 | 64 | 292 | 3.0 | 5.0 | 0.00 | 0.00 | 0.00 | 84 | 1013.7 |
| 20260508011752 | 64 | 251 | 6.0 | 7.0 | 0.00 | 0.00 | 0.00 | 84 | 1013.9 |
| 20260508011249 | 64 | 308 | 7.0 | 9.0 | 0.00 | 0.00 | 0.00 | 84 | 1014.1 |
| 20260508010746 | 64 | 351 | 2.0 | 3.0 | 0.00 | 0.00 | 0.00 | 84 | 1013.9 |
| 20260508010244 | 63 | 236 | 2.0 | 5.0 | 0.00 | 0.00 | 0.00 | 85 | 1013.8 |
| 20260508005741 | 64 | 274 | 7.0 | 8.0 | 0.00 | 0.00 | 0.00 | 83 | 1013.8 |
| 20260508005238 | 63 | 278 | 6.0 | 8.0 | 0.00 | 0.00 | 0.00 | 85 | 1013.9 |
| 20260508004733 | 64 | 232 | 6.0 | 8.0 | 0.00 | 0.00 | 0.00 | 84 | 1013.9 |
| 20260508004230 | 64 | 276 | 7.0 | 8.0 | 0.00 | 0.00 | 0.00 | 84 | 1014.0 |
| 20260508003726 | 64 | 292 | 7.0 | 10.0 | 0.00 | 0.00 | 0.00 | 84 | 1014.0 |
| 20260508003224 | 64 | 311 | 8.0 | 10.0 | 0.00 | 0.00 | 0.00 | 83 | 1014.0 |
| 20260508002720 | 64 | 234 | 6.0 | 9.0 | 0.00 | 0.00 | 0.00 | 83 | 1014.1 |
| 20260508002218 | 65 | 259 | 3.0 | 5.0 | 0.00 | 0.00 | 0.00 | 82 | 1014.1 |
| 20260508001713 | 64 | 226 | 6.0 | 9.0 | 0.00 | 0.00 | 0.00 | 83 | 1014.0 |
| 20260508001209 | 65 | 231 | 5.0 | 6.0 | 0.00 | 0.00 | 0.00 | 81 | 1013.9 |
| 20260508000705 | 64 | 312 | 3.0 | 3.0 | 0.00 | 0.00 | 0.00 | 83 | 1014.0 |
| 20260508000204 | 64 | 243 | 3.0 | 3.0 | 0.00 | 0.00 | 0.00 | 83 | 1014.1 |
| 20260507235659 | 64 | 321 | 5.0 | 9.0 | 0.00 | 0.00 | 0.00 | 83 | 1014.0 |
| 20260507235157 | 64 | 268 | 5.0 | 6.0 | 0.00 | 0.00 | 0.00 | 83 | 1014.2 |
| 20260507234653 | 64 | 270 | 9.0 | 11.0 | 0.00 | 0.00 | 0.00 | 85 | 1014.0 |
| 20260507234150 | 64 | 233 | 4.0 | 8.0 | 0.00 | 0.00 | 0.00 | 85 | 1014.1 |
| 20260507233647 | 64 | 219 | 7.0 | 10.0 | 0.00 | 0.00 | 0.00 | 83 | 1014.0 |
| 20260507233145 | 64 | 285 | 5.0 | 7.0 | 0.00 | 0.00 | 0.00 | 84 | 1014.2 |
| 20260507232641 | 65 | 282 | 5.0 | 6.0 | 0.00 | 0.00 | 0.00 | 83 | 1014.1 |
| 20260507232139 | 64 | 317 | 5.0 | 8.0 | 0.00 | 0.00 | 0.00 | 84 | 1014.0 |
| 20260507231635 | 65 | 261 | 2.0 | 5.0 | 0.00 | 0.00 | 0.00 | 83 | 1014.1 |
| 20260507231132 | 66 | 286 | 2.0 | 3.0 | 0.00 | 0.00 | 0.00 | 81 | 1014.0 |
| 20260507230628 | 66 | 267 | 6.0 | 9.0 | 0.00 | 0.00 | 0.00 | 82 | 1013.9 |
| 20260507230126 | 66 | 285 | 6.0 | 7.0 | 0.00 | 0.00 | 0.00 | 81 | 1014.2 |
| 20260507225620 | 66 | 216 | 4.0 | 6.0 | 0.00 | 0.00 | 0.00 | 79 | 1014.0 |
| 20260507225117 | 66 | 247 | 11.0 | 13.0 | 0.00 | 0.00 | 0.00 | 79 | 1014.5 |
| 20260507224613 | 66 | 294 | 8.0 | 11.0 | 0.00 | 0.00 | 0.00 | 79 | 1014.3 |
| 20260507224110 | 66 | 263 | 5.0 | 7.0 | 0.00 | 0.00 | 0.00 | 78 | 1014.2 |
| 20260507223606 | 65 | 236 | 7.0 | 10.0 | 0.00 | 0.00 | 0.00 | 80 | 1014.4 |
| 20260507223103 | 65 | 219 | 9.0 | 11.0 | 0.00 | 0.00 | 0.00 | 80 | 1014.3 |
| 20260507222600 | 65 | 247 | 3.0 | 5.0 | 0.00 | 0.00 | 0.00 | 81 | 1014.7 |
| 20260507222056 | 65 | 10 | 2.0 | 3.0 | 0.00 | 0.00 | 0.00 | 81 | 1014.5 |
| 20260507221552 | 66 | 267 | 8.0 | 9.0 | 0.00 | 0.00 | 0.00 | 81 | 1014.7 |
| 20260507221049 | 66 | 227 | 10.0 | 13.0 | 0.00 | 0.00 | 0.00 | 80 | 1014.8 |
| 20260507220547 | 66 | 306 | 5.0 | 8.0 | 0.00 | 0.00 | 0.00 | 79 | 1015.0 |
| 20260507220044 | 64 | 245 | 8.0 | 10.0 | 0.00 | 0.00 | 0.00 | 82 | 1014.8 |
| 20260507215540 | 64 | 267 | 9.0 | 10.0 | 0.00 | 0.00 | 0.00 | 83 | 1014.8 |
| 20260507215038 | 65 | 227 | 12.0 | 15.0 | 0.00 | 0.00 | 0.00 | 80 | 1014.9 |
| 20260507214535 | 65 | 259 | 7.0 | 10.0 | 0.00 | 0.00 | 0.00 | 79 | 1014.8 |
| 20260507214031 | 65 | 225 | 7.0 | 10.0 | 0.00 | 0.00 | 0.00 | 80 | 1015.1 |
| 20260507213527 | 65 | 241 | 11.0 | 14.0 | 0.00 | 0.00 | 0.00 | 79 | 1014.9 |
| 20260507213025 | 65 | 285 | 3.0 | 6.0 | 0.00 | 0.00 | 0.00 | 79 | 1015.0 |
| 20260507212520 | 66 | 246 | 6.0 | 10.0 | 0.00 | 0.00 | 0.00 | 79 | 1014.9 |
| 20260507212017 | 66 | 271 | 10.0 | 14.0 | 0.00 | 0.00 | 0.00 | 79 | 1014.9 |
| 20260507211514 | 65 | 170 | 8.0 | 13.0 | 0.00 | 0.00 | 0.00 | 81 | 1014.9 |
| 20260507211005 | 65 | 340 | 7.0 | 9.0 | 0.00 | 0.00 | 0.00 | 81 | 1015.2 |
| 20260507210502 | 66 | 293 | 7.0 | 8.0 | 0.00 | 0.00 | 0.00 | 80 | 1015.4 |
| 20260507205959 | 65 | 297 | 5.0 | 6.0 | 0.00 | 0.00 | 0.00 | 80 | 1015.2 |
| 20260507205456 | 65 | 250 | 6.0 | 8.0 | 0.00 | 0.00 | 0.00 | 79 | 1015.6 |
| 20260507204952 | 66 | 277 | 3.0 | 5.0 | 0.00 | 0.00 | 0.00 | 80 | 1015.5 |
| 20260507204448 | 64 | 250 | 9.0 | 11.0 | 0.00 | 0.00 | 0.00 | 82 | 1015.4 |
| 20260507203946 | 65 | 292 | 8.0 | 10.0 | 0.00 | 0.00 | 0.00 | 80 | 1015.4 |
| 20260507203444 | 65 | 286 | 8.0 | 10.0 | 0.00 | 0.00 | 0.00 | 81 | 1015.5 |
| 20260507202940 | 64 | 260 | 10.0 | 14.0 | 0.00 | 0.00 | 0.00 | 82 | 1015.3 |
| 20260507202437 | 64 | 210 | 7.0 | 9.0 | 0.00 | 0.00 | 0.00 | 82 | 1015.4 |
| 20260507201932 | 64 | 244 | 7.0 | 11.0 | 0.00 | 0.00 | 0.00 | 81 | 1015.7 |
| 20260507201427 | 65 | 289 | 5.0 | 6.0 | 0.00 | 0.00 | 0.00 | 81 | 1015.7 |
| 20260507200924 | 64 | 261 | 6.0 | 11.0 | 0.00 | 0.00 | 0.00 | 82 | 1015.5 |
| 20260507200420 | 65 | 242 | 3.0 | 6.0 | 0.00 | 0.00 | 0.00 | 81 | 1015.5 |
| 20260507195916 | 65 | 269 | 5.0 | 8.0 | 0.00 | 0.00 | 0.00 | 81 | 1015.8 |
| 20260507195414 | 65 | 306 | 8.0 | 10.0 | 0.00 | 0.00 | 0.00 | 80 | 1015.6 |
| 20260507194911 | 65 | 291 | 6.0 | 7.0 | 0.00 | 0.00 | 0.00 | 80 | 1015.9 |
| 20260507194407 | 65 | 246 | 7.0 | 10.0 | 0.00 | 0.00 | 0.00 | 80 | 1015.8 |
| 20260507193903 | 64 | 256 | 8.0 | 10.0 | 0.00 | 0.00 | 0.00 | 83 | 1016.0 |
| 20260507193401 | 64 | 277 | 9.0 | 11.0 | 0.00 | 0.00 | 0.00 | 82 | 1015.8 |
| 20260507192857 | 65 | 268 | 8.0 | 11.0 | 0.00 | 0.00 | 0.00 | 80 | 1016.0 |
| 20260507192353 | 64 | 247 | 6.0 | 7.0 | 0.00 | 0.00 | 0.00 | 81 | 1015.9 |
| 20260507191850 | 65 | 227 | 6.0 | 8.0 | 0.00 | 0.00 | 0.00 | 80 | 1015.8 |
| 20260507191346 | 64 | 335 | 5.0 | 8.0 | 0.00 | 0.00 | 0.00 | 81 | 1016.0 |
| 20260507190843 | 64 | 175 | 8.0 | 10.0 | 0.00 | 0.00 | 0.00 | 81 | 1016.2 |
| 20260507190341 | 64 | 287 | 3.0 | 5.0 | 0.00 | 0.00 | 0.00 | 81 | 1016.1 |
| 20260507185840 | 64 | 262 | 5.0 | 8.0 | 0.00 | 0.00 | 0.00 | 81 | 1016.2 |
| 20260507185337 | 65 | 305 | 5.0 | 6.0 | 0.00 | 0.00 | 0.00 | 81 | 1016.3 |
| 20260507184833 | 64 | 324 | 3.0 | 3.0 | 0.00 | 0.00 | 0.00 | 81 | 1016.2 |
| 20260507184331 | 64 | 278 | 5.0 | 6.0 | 0.00 | 0.00 | 0.00 | 82 | 1016.1 |
| 20260507183828 | 65 | 260 | 5.0 | 8.0 | 0.00 | 0.00 | 0.00 | 79 | 1016.3 |
| 20260507183325 | 65 | 233 | 4.0 | 8.0 | 0.00 | 0.00 | 0.00 | 80 | 1016.4 |
| 20260507182823 | 65 | 268 | 4.0 | 7.0 | 0.00 | 0.00 | 0.00 | 80 | 1016.2 |
| 20260507182318 | 65 | 292 | 4.0 | 5.0 | 0.00 | 0.00 | 0.00 | 80 | 1016.2 |
| 20260507181815 | 65 | 259 | 5.0 | 7.0 | 0.00 | 0.00 | 0.00 | 80 | 1016.2 |
| 20260507181310 | 65 | 174 | 2.0 | 3.0 | 0.00 | 0.00 | 0.00 | 80 | 1016.1 |
| 20260507180808 | 64 | 272 | 6.0 | 8.0 | 0.00 | 0.00 | 0.00 | 81 | 1016.4 |
| 20260507180304 | 65 | 231 | 3.0 | 5.0 | 0.00 | 0.00 | 0.00 | 81 | 1016.3 |
| 20260507175800 | 64 | 279 | 3.0 | 3.0 | 0.00 | 0.00 | 0.00 | 81 | 1016.5 |
| 20260507175257 | 64 | 273 | 7.0 | 9.0 | 0.00 | 0.00 | 0.00 | 82 | 1016.5 |
| 20260507174754 | 64 | 218 | 5.0 | 7.0 | 0.00 | 0.00 | 0.00 | 82 | 1016.4 |
| 20260507174252 | 64 | 264 | 6.0 | 7.0 | 0.00 | 0.00 | 0.00 | 82 | 1016.5 |
| 20260507173750 | 64 | 246 | 3.0 | 3.0 | 0.00 | 0.00 | 0.00 | 82 | 1016.5 |
| 20260507173247 | 64 | 289 | 7.0 | 8.0 | 0.00 | 0.00 | 0.00 | 81 | 1016.6 |
| 20260507172743 | 64 | 48 | 2.0 | 2.0 | 0.00 | 0.00 | 0.00 | 82 | 1016.4 |
| 20260507172240 | 64 | 210 | 5.0 | 7.0 | 0.00 | 0.00 | 0.00 | 82 | 1016.4 |
| 20260507171735 | 63 | 2 | 3.0 | 3.0 | 0.00 | 0.00 | 0.00 | 83 | 1016.3 |
| 20260507171233 | 63 | 246 | 6.0 | 8.0 | 0.00 | 0.00 | 0.00 | 82 | 1016.3 |
| 20260507170729 | 63 | 305 | 4.0 | 5.0 | 0.00 | 0.00 | 0.00 | 82 | 1016.4 |
| 20260507170226 | 63 | 269 | 5.0 | 6.0 | 0.00 | 0.00 | 0.00 | 83 | 1016.3 |
| 20260507165721 | 63 | 227 | 5.0 | 7.0 | 0.00 | 0.00 | 0.00 | 83 | 1016.7 |
| 20260507165218 | 64 | 254 | 3.0 | 5.0 | 0.00 | 0.00 | 0.00 | 81 | 1016.5 |
| 20260507164714 | 64 | 284 | 3.0 | 5.0 | 0.00 | 0.00 | 0.00 | 83 | 1016.6 |
| 20260507164212 | 63 | 338 | 3.0 | 3.0 | 0.00 | 0.00 | 0.00 | 82 | 1016.3 |
| 20260507163708 | 63 | 250 | 5.0 | 6.0 | 0.00 | 0.00 | 0.00 | 82 | 1016.6 |
| 20260507163206 | 63 | 205 | 3.0 | 6.0 | 0.00 | 0.00 | 0.00 | 83 | 1016.5 |
| 20260507162701 | 62 | 302 | 1.0 | 3.0 | 0.00 | 0.00 | 0.00 | 84 | 1016.6 |
| 20260507162157 | 63 | 245 | 5.0 | 6.0 | 0.00 | 0.00 | 0.00 | 83 | 1016.6 |
| 20260507161654 | 63 | 225 | 1.0 | 2.0 | 0.00 | 0.00 | 0.00 | 84 | 1016.7 |
| 20260507161145 | 62 | 329 | 2.0 | 2.0 | 0.00 | 0.00 | 0.00 | 84 | 1016.5 |
| 20260507160642 | 63 | 278 | 2.0 | 2.0 | 0.00 | 0.00 | 0.00 | 83 | 1016.7 |
| 20260507160138 | 63 | 225 | 1.0 | 2.0 | 0.00 | 0.00 | 0.00 | 83 | 1016.6 |
| 20260507155634 | 62 | 301 | 3.0 | 3.0 | 0.00 | 0.00 | 0.00 | 84 | 1016.6 |
| 20260507155131 | 62 | 280 | 2.0 | 2.0 | 0.00 | 0.00 | 0.00 | 85 | 1016.5 |
| 20260507154627 | 62 | 251 | 3.0 | 5.0 | 0.00 | 0.00 | 0.00 | 86 | 1016.4 |
| 20260507154125 | 62 | 298 | 2.0 | 2.0 | 0.00 | 0.00 | 0.00 | 87 | 1016.4 |
| 20260507153621 | 62 | 310 | 5.0 | 6.0 | 0.00 | 0.00 | 0.00 | 85 | 1016.5 |
| 20260507153118 | 62 | 328 | 1.0 | 2.0 | 0.00 | 0.00 | 0.00 | 86 | 1016.4 |
| 20260507152614 | 62 | 202 | 4.0 | 6.0 | 0.00 | 0.00 | 0.00 | 86 | 1016.5 |
| 20260507152110 | 61 | 238 | 3.0 | 3.0 | 0.00 | 0.00 | 0.00 | 87 | 1016.6 |
| 20260507151606 | 61 | 275 | 2.0 | 2.0 | 0.00 | 0.00 | 0.00 | 87 | 1016.8 |
| 20260507151103 | 62 | 332 | 0.0 | 0.0 | 0.00 | 0.00 | 0.00 | 87 | 1016.7 |
| 20260507150601 | 61 | 238 | 3.0 | 3.0 | 0.00 | 0.00 | 0.00 | 88 | 1016.5 |
| 20260507150057 | 61 | 274 | 3.0 | 3.0 | 0.00 | 0.00 | 0.00 | 87 | 1016.7 |
| 20260507145552 | 61 | 283 | 1.0 | 1.0 | 0.00 | 0.00 | 0.00 | 89 | 1016.6 |
| 20260507145050 | 61 | 278 | 1.0 | 1.0 | 0.00 | 0.00 | 0.00 | 89 | 1016.5 |
| 20260507144546 | 60 | 307 | 2.0 | 2.0 | 0.00 | 0.00 | 0.00 | 89 | 1016.5 |
| 20260507144044 | 60 | 289 | 2.0 | 2.0 | 0.00 | 0.00 | 0.00 | 89 | 1016.6 |
| 20260507143541 | 60 | 256 | 4.0 | 5.0 | 0.00 | 0.00 | 0.00 | 90 | 1016.4 |
| 20260507143039 | 60 | 303 | 3.0 | 3.0 | 0.00 | 0.00 | 0.00 | 90 | 1016.7 |
| 20260507142533 | 60 | 251 | 3.0 | 3.0 | 0.00 | 0.00 | 0.00 | 90 | 1016.5 |
| 20260507142031 | 60 | 256 | 4.0 | 5.0 | 0.00 | 0.00 | 0.00 | 91 | 1016.4 |
| 20260507141527 | 60 | 255 | 3.0 | 3.0 | 0.00 | 0.00 | 0.00 | 91 | 1016.2 |
| 20260507141024 | 60 | 250 | 1.0 | 2.0 | 0.00 | 0.00 | 0.00 | 91 | 1016.3 |
| 20260507140521 | 59 | 214 | 3.0 | 3.0 | 0.00 | 0.00 | 0.00 | 91 | 1016.2 |
| 20260507140018 | 59 | 248 | 3.0 | 5.0 | 0.00 | 0.00 | 0.00 | 92 | 1016.2 |
| 20260507135514 | 59 | 267 | 2.0 | 2.0 | 0.00 | 0.00 | 0.00 | 92 | 1016.1 |
| 20260507135012 | 59 | 222 | 2.0 | 3.0 | 0.00 | 0.00 | 0.00 | 93 | 1016.0 |
| 20260507134508 | 59 | 252 | 3.0 | 3.0 | 0.00 | 0.00 | 0.00 | 93 | 1016.0 |
| 20260507134004 | 59 | 263 | 2.0 | 3.0 | 0.00 | 0.00 | 0.00 | 93 | 1015.9 |
| 20260507133500 | 59 | 254 | 1.0 | 1.0 | 0.00 | 0.00 | 0.00 | 94 | 1016.2 |
| 20260507132959 | 58 | 229 | 2.0 | 2.0 | 0.00 | 0.00 | 0.00 | 94 | 1015.9 |
| 20260507132455 | 59 | 253 | 2.0 | 2.0 | 0.00 | 0.00 | 0.00 | 94 | 1015.9 |
| 20260507131951 | 58 | 299 | 0.0 | 0.0 | 0.00 | 0.00 | 0.00 | 94 | 1015.9 |
| 20260507131448 | 58 | 230 | 0.0 | 0.0 | 0.00 | 0.00 | 0.00 | 94 | 1015.9 |
| 20260507130945 | 58 | 254 | 0.0 | 0.0 | 0.00 | 0.00 | 0.00 | 94 | 1016.0 |
| 20260507130442 | 57 | 251 | 0.0 | 0.0 | 0.00 | 0.00 | 0.00 | 94 | 1015.9 |
| 20260507125941 | 57 | 297 | 0.0 | 0.0 | 0.00 | 0.00 | 0.00 | 93 | 1015.7 |
| 20260507125439 | 59 | 278 | 0.0 | 0.0 | 0.00 | 0.00 | 0.00 | 93 | 1015.6 |
| 20260507124936 | 58 | 266 | 0.0 | 0.0 | 0.00 | 0.00 | 0.00 | 94 | 1015.7 |
| 20260507124432 | 58 | 253 | 0.0 | 0.0 | 0.00 | 0.00 | 0.00 | 94 | 1015.7 |
| 20260507123930 | 57 | 261 | 0.0 | 0.0 | 0.00 | 0.00 | 0.00 | 93 | 1015.5 |
| 20260507123427 | 57 | 291 | 0.0 | 0.0 | 0.00 | 0.00 | 0.00 | 93 | 1015.6 |
| 20260507122923 | 57 | 297 | 0.0 | 0.0 | 0.00 | 0.00 | 0.00 | 93 | 1015.8 |
| 20260507122419 | 57 | 294 | 0.0 | 0.0 | 0.00 | 0.00 | 0.00 | 93 | 1015.7 |
| 20260507121915 | 57 | 305 | 0.0 | 0.0 | 0.00 | 0.00 | 0.00 | 93 | 1015.8 |
| 20260507121411 | 57 | 318 | 0.0 | 0.0 | 0.00 | 0.00 | 0.00 | 92 | 1015.8 |
| 20260507120908 | 57 | 322 | 0.0 | 0.0 | 0.00 | 0.00 | 0.00 | 92 | 1015.6 |
| 20260507120404 | 57 | 321 | 0.0 | 0.0 | 0.00 | 0.00 | 0.00 | 92 | 1015.8 |
| 20260507115900 | 58 | 309 | 0.0 | 0.0 | 0.00 | 0.00 | 0.00 | 91 | 1015.7 |
| 20260507115356 | 58 | 284 | 0.0 | 0.0 | 0.00 | 0.00 | 0.00 | 91 | 1015.7 |
| 20260507114852 | 58 | 308 | 0.0 | 0.0 | 0.00 | 0.00 | 0.00 | 91 | 1015.6 |
| 20260507114349 | 58 | 266 | 0.0 | 0.0 | 0.00 | 0.00 | 0.00 | 91 | 1015.6 |
| 20260507113847 | 58 | 279 | 0.0 | 0.0 | 0.00 | 0.00 | 0.00 | 91 | 1015.7 |
| 20260507113343 | 58 | 283 | 0.0 | 0.0 | 0.00 | 0.00 | 0.00 | 92 | 1016.1 |
| 20260507112841 | 58 | 288 | 0.0 | 0.0 | 0.00 | 0.00 | 0.00 | 92 | 1015.7 |
| 20260507112338 | 58 | 257 | 1.0 | 1.0 | 0.00 | 0.00 | 0.00 | 92 | 1015.7 |
| 20260507111836 | 58 | 294 | 0.0 | 1.0 | 0.00 | 0.00 | 0.00 | 93 | 1015.8 |
| 20260507111332 | 58 | 302 | 0.0 | 1.0 | 0.00 | 0.00 | 0.00 | 93 | 1015.8 |
| 20260507110828 | 58 | 228 | 3.0 | 3.0 | 0.00 | 0.00 | 0.00 | 93 | 1015.8 |
| 20260507110325 | 58 | 268 | 1.0 | 2.0 | 0.00 | 0.00 | 0.00 | 93 | 1015.7 |
| 20260507105822 | 58 | 305 | 0.0 | 1.0 | 0.00 | 0.00 | 0.00 | 93 | 1015.8 |
| 20260507105318 | 58 | 302 | 0.0 | 0.0 | 0.00 | 0.00 | 0.00 | 93 | 1016.0 |
| 20260507104815 | 58 | 294 | 0.0 | 0.0 | 0.00 | 0.00 | 0.00 | 93 | 1016.0 |
| 20260507104311 | 58 | 224 | 1.0 | 3.0 | 0.00 | 0.00 | 0.00 | 93 | 1016.0 |
| 20260507103807 | 58 | 235 | 1.0 | 2.0 | 0.00 | 0.00 | 0.00 | 93 | 1016.0 |
| 20260507103304 | 58 | 311 | 0.0 | 0.0 | 0.00 | 0.00 | 0.00 | 93 | 1016.0 |
| 20260507102801 | 58 | 293 | 0.0 | 0.0 | 0.00 | 0.00 | 0.00 | 93 | 1016.3 |
| 20260507102257 | 58 | 273 | 0.0 | 0.0 | 0.00 | 0.00 | 0.00 | 94 | 1016.2 |
| 20260507101754 | 58 | 256 | 0.0 | 0.0 | 0.00 | 0.00 | 0.00 | 94 | 1016.2 |
| 20260507101248 | 58 | 256 | 0.0 | 0.0 | 0.00 | 0.00 | 0.00 | 94 | 1016.0 |
| 20260507100746 | 58 | 265 | 0.0 | 0.0 | 0.00 | 0.00 | 0.00 | 94 | 1016.2 |
| 20260507100244 | 58 | 303 | 0.0 | 0.0 | 0.00 | 0.00 | 0.00 | 94 | 1016.1 |
| 20260507095742 | 58 | 309 | 0.0 | 0.0 | 0.00 | 0.00 | 0.00 | 94 | 1016.2 |
| 20260507095238 | 59 | 310 | 0.0 | 0.0 | 0.00 | 0.00 | 0.00 | 94 | 1016.1 |
| 20260507094735 | 58 | 311 | 0.0 | 0.0 | 0.00 | 0.00 | 0.00 | 94 | 1016.3 |
| 20260507094232 | 58 | 321 | 0.0 | 0.0 | 0.00 | 0.00 | 0.00 | 93 | 1016.3 |
| 20260507093729 | 59 | 323 | 0.0 | 0.0 | 0.00 | 0.00 | 0.00 | 93 | 1016.2 |
| 20260507093227 | 59 | 303 | 0.0 | 0.0 | 0.00 | 0.00 | 0.00 | 93 | 1016.3 |
| 20260507092725 | 59 | 262 | 0.0 | 0.0 | 0.00 | 0.00 | 0.00 | 93 | 1016.5 |
| 20260507092220 | 59 | 298 | 0.0 | 0.0 | 0.00 | 0.00 | 0.00 | 93 | 1016.5 |
| 20260507091717 | 59 | 309 | 0.0 | 0.0 | 0.00 | 0.00 | 0.00 | 93 | 1016.6 |
| 20260507091214 | 59 | 299 | 0.0 | 0.0 | 0.00 | 0.00 | 0.00 | 93 | 1016.5 |
| 20260507090714 | 59 | 278 | 0.0 | 1.0 | 0.00 | 0.00 | 0.00 | 93 | 1016.8 |
| 20260507090211 | 59 | 297 | 1.0 | 1.0 | 0.00 | 0.00 | 0.00 | 93 | 1016.7 |
| 20260507085708 | 59 | 220 | 1.0 | 2.0 | 0.00 | 0.00 | 0.00 | 92 | 1016.7 |
| 20260507085205 | 59 | 272 | 2.0 | 2.0 | 0.00 | 0.00 | 0.00 | 92 | 1016.9 |
| 20260507084702 | 59 | 268 | 1.0 | 1.0 | 0.00 | 0.00 | 0.00 | 92 | 1016.6 |
| 20260507084158 | 59 | 298 | 2.0 | 2.0 | 0.00 | 0.00 | 0.00 | 92 | 1016.9 |
| 20260507083655 | 59 | 291 | 1.0 | 1.0 | 0.00 | 0.00 | 0.00 | 91 | 1016.6 |
| 20260507083152 | 59 | 243 | 3.0 | 3.0 | 0.00 | 0.00 | 0.00 | 91 | 1016.9 |
| 20260507082648 | 59 | 295 | 1.0 | 2.0 | 0.00 | 0.00 | 0.00 | 91 | 1017.0 |
| 20260507082144 | 59 | 271 | 0.0 | 0.0 | 0.00 | 0.00 | 0.00 | 90 | 1017.0 |
| 20260507081641 | 59 | 250 | 1.0 | 2.0 | 0.00 | 0.00 | 0.00 | 90 | 1016.9 |
| 20260507081138 | 59 | 300 | 3.0 | 5.0 | 0.00 | 0.00 | 0.00 | 90 | 1016.9 |
| 20260507080634 | 59 | 296 | 1.0 | 1.0 | 0.00 | 0.00 | 0.00 | 89 | 1016.8 |
| 20260507080131 | 60 | 290 | 5.0 | 6.0 | 0.00 | 0.00 | 0.00 | 89 | 1016.9 |
| 20260507075631 | 59 | 259 | 2.0 | 2.0 | 0.00 | 0.00 | 0.00 | 88 | 1017.0 |
| 20260507075127 | 59 | 280 | 4.0 | 6.0 | 0.00 | 0.00 | 0.00 | 88 | 1017.0 |
| 20260507074624 | 59 | 247 | 4.0 | 7.0 | 0.00 | 0.00 | 0.00 | 89 | 1017.0 |
| 20260507074123 | 59 | 287 | 3.0 | 3.0 | 0.00 | 0.00 | 0.00 | 89 | 1016.9 |
| 20260507073618 | 59 | 323 | 4.0 | 5.0 | 0.00 | 0.00 | 0.00 | 89 | 1017.1 |
| 20260507073115 | 59 | 287 | 2.0 | 3.0 | 0.00 | 0.00 | 0.00 | 89 | 1017.1 |
| 20260507072613 | 59 | 356 | 5.0 | 7.0 | 0.00 | 0.00 | 0.00 | 89 | 1016.9 |
| 20260507072109 | 60 | 255 | 4.0 | 5.0 | 0.00 | 0.00 | 0.00 | 89 | 1017.0 |
| 20260507071607 | 60 | 251 | 2.0 | 2.0 | 0.00 | 0.00 | 0.00 | 89 | 1017.0 |
| 20260507071103 | 60 | 283 | 5.0 | 6.0 | 0.00 | 0.00 | 0.00 | 88 | 1017.1 |
| 20260507070600 | 60 | 322 | 6.0 | 8.0 | 0.00 | 0.00 | 0.00 | 88 | 1017.3 |
| 20260507070057 | 59 | 197 | 5.0 | 6.0 | 0.00 | 0.00 | 0.00 | 90 | 1017.0 |
| 20260507065553 | 60 | 224 | 4.0 | 6.0 | 0.00 | 0.00 | 0.00 | 91 | 1017.2 |
| 20260507065051 | 59 | 266 | 5.0 | 6.0 | 0.00 | 0.00 | 0.00 | 92 | 1017.3 |
| 20260507064549 | 59 | 261 | 4.0 | 5.0 | 0.00 | 0.00 | 0.00 | 92 | 1017.1 |
| 20260507064047 | 59 | 305 | 2.0 | 3.0 | 0.00 | 0.00 | 0.00 | 92 | 1017.0 |
| 20260507063544 | 59 | 249 | 4.0 | 5.0 | 0.00 | 0.00 | 0.00 | 92 | 1017.4 |
| 20260507063041 | 59 | 297 | 2.0 | 2.0 | 0.00 | 0.00 | 0.00 | 92 | 1017.3 |
| 20260507062538 | 59 | 276 | 3.0 | 3.0 | 0.00 | 0.00 | 0.00 | 92 | 1017.3 |
| 20260507062035 | 59 | 294 | 3.0 | 3.0 | 0.00 | 0.00 | 0.00 | 92 | 1017.3 |
| 20260507061533 | 59 | 299 | 2.0 | 2.0 | 0.00 | 0.00 | 0.00 | 92 | 1017.4 |
| 20260507061031 | 59 | 290 | 4.0 | 5.0 | 0.00 | 0.00 | 0.00 | 92 | 1017.4 |
| 20260507060528 | 59 | 284 | 3.0 | 3.0 | 0.00 | 0.00 | 0.00 | 92 | 1017.5 |
| 20260507060025 | 59 | 302 | 1.0 | 2.0 | 0.00 | 0.00 | 0.00 | 92 | 1017.3 |
| 20260507055520 | 59 | 335 | 3.0 | 5.0 | 0.00 | 0.00 | 0.00 | 92 | 1017.5 |
| 20260507055016 | 59 | 274 | 4.0 | 6.0 | 0.00 | 0.00 | 0.00 | 92 | 1017.4 |
| 20260507054513 | 59 | 275 | 5.0 | 6.0 | 0.00 | 0.00 | 0.00 | 92 | 1017.5 |
| 20260507054009 | 59 | 236 | 1.0 | 2.0 | 0.00 | 0.00 | 0.00 | 92 | 1017.3 |
| 20260507053508 | 59 | 281 | 5.0 | 6.0 | 0.00 | 0.00 | 0.00 | 92 | 1017.3 |
| 20260507053006 | 59 | 262 | 4.0 | 6.0 | 0.00 | 0.00 | 0.00 | 92 | 1017.1 |
| 20260507052504 | 59 | 235 | 3.0 | 3.0 | 0.00 | 0.00 | 0.00 | 91 | 1017.4 |
| 20260507052000 | 59 | 261 | 3.0 | 3.0 | 0.00 | 0.00 | 0.00 | 91 | 1017.4 |
| 20260507051458 | 59 | 275 | 2.0 | 3.0 | 0.00 | 0.00 | 0.00 | 91 | 1017.5 |
| 20260507050954 | 59 | 274 | 3.0 | 3.0 | 0.00 | 0.00 | 0.00 | 91 | 1017.5 |
| 20260507050451 | 59 | 289 | 3.0 | 3.0 | 0.00 | 0.00 | 0.00 | 90 | 1017.3 |
| 20260507045948 | 60 | 310 | 3.0 | 5.0 | 0.00 | 0.00 | 0.00 | 90 | 1017.4 |
| 20260507045444 | 60 | 275 | 3.0 | 5.0 | 0.00 | 0.00 | 0.00 | 89 | 1017.2 |
| 20260507044942 | 60 | 274 | 5.0 | 6.0 | 0.00 | 0.00 | 0.00 | 89 | 1017.2 |
| 20260507044438 | 60 | 243 | 2.0 | 2.0 | 0.00 | 0.00 | 0.00 | 88 | 1017.2 |
| 20260507043934 | 60 | 218 | 5.0 | 7.0 | 0.00 | 0.00 | 0.00 | 87 | 1017.3 |
| 20260507043431 | 60 | 314 | 6.0 | 9.0 | 0.00 | 0.00 | 0.00 | 86 | 1017.2 |
| 20260507042927 | 60 | 271 | 5.0 | 7.0 | 0.00 | 0.00 | 0.00 | 87 | 1017.2 |
| 20260507042424 | 60 | 286 | 3.0 | 5.0 | 0.00 | 0.00 | 0.00 | 88 | 1017.0 |
| 20260507041920 | 60 | 239 | 2.0 | 3.0 | 0.00 | 0.00 | 0.00 | 89 | 1017.1 |
| 20260507041416 | 60 | 308 | 1.0 | 1.0 | 0.00 | 0.00 | 0.00 | 89 | 1017.2 |
| 20260507040914 | 60 | 273 | 2.0 | 3.0 | 0.00 | 0.00 | 0.00 | 89 | 1017.0 |
| 20260507040410 | 61 | 230 | 4.0 | 8.0 | 0.00 | 0.00 | 0.00 | 88 | 1016.7 |
| 20260507035906 | 61 | 247 | 2.0 | 3.0 | 0.00 | 0.00 | 0.00 | 88 | 1017.0 |
| 20260507035402 | 61 | 259 | 5.0 | 7.0 | 0.00 | 0.00 | 0.00 | 88 | 1017.0 |
| 20260507034859 | 60 | 295 | 3.0 | 5.0 | 0.00 | 0.00 | 0.00 | 88 | 1016.7 |
| 20260507034356 | 61 | 255 | 5.0 | 6.0 | 0.00 | 0.00 | 0.00 | 87 | 1016.6 |
| 20260507033854 | 61 | 301 | 4.0 | 7.0 | 0.00 | 0.00 | 0.00 | 87 | 1016.7 |